,,,PA_Meas_PMT16A,,PR_Meas_QMR101_102,,RH_Meas_QMH101,,SR_Meas_QMS101,,TA_Meas_QMH101,,GenWind,,GenWind,
date,time,status,PA,status,PR,status,RH,status,SR,status,TA,status,DirAvg,status,SpdAvg,
2012-09-11, 00:00:04,VALID,1011.67,VALID,0,VALID,104,VALID,0,VALID,22.7199,VALID,217,VALID,0,
2012-09-11, 00:01:04,VALID,1011.66,VALID,0,VALID,104,VALID,0.112112,VALID,22.6987,VALID,217,VALID,0,
2012-09-11, 00:02:04,VALID,1011.64,VALID,0,VALID,104,VALID,0.112112,VALID,22.7004,VALID,217,VALID,0,
2012-09-11, 00:03:04,VALID,1011.63,VALID,0,VALID,104,VALID,0,VALID,22.7199,VALID,217,VALID,0,
2012-09-11, 00:04:04,VALID,1011.62,VALID,0,VALID,104,VALID,0,VALID,22.6792,VALID,217,VALID,0,
2012-09-11, 00:05:04,VALID,1011.61,VALID,0,VALID,104,VALID,0,VALID,22.7004,VALID,217,VALID,0,
2012-09-11, 00:06:04,VALID,1011.58,VALID,0,VALID,104,VALID,0,VALID,22.7004,VALID,217,VALID,0,
2012-09-11, 00:07:04,VALID,1011.59,VALID,0,VALID,104,VALID,0.112112,VALID,22.6792,VALID,217,VALID,0,
2012-09-11, 00:08:04,VALID,1011.57,VALID,0,VALID,104,VALID,0.112112,VALID,22.7199,VALID,217,VALID,0,
2012-09-11, 00:09:04,VALID,1011.54,VALID,0,VALID,104,VALID,0.112112,VALID,22.7199,VALID,217,VALID,0,
2012-09-11, 00:10:04,VALID,1011.55,VALID,0,VALID,104,VALID,0.112112,VALID,22.7394,VALID,217,VALID,0,
2012-09-11, 00:11:04,VALID,1011.54,VALID,0,VALID,104,VALID,0,VALID,22.7199,VALID,217,VALID,0,
2012-09-11, 00:12:04,VALID,1011.52,VALID,0,VALID,104,VALID,0,VALID,22.6987,VALID,217,VALID,0,
2012-09-11, 00:13:04,VALID,1011.52,VALID,0,VALID,104,VALID,0.112112,VALID,22.6792,VALID,217,VALID,0,
2012-09-11, 00:14:04,VALID,1011.52,VALID,0,VALID,104,VALID,0,VALID,22.7004,VALID,217,VALID,0,
2012-09-11, 00:15:04,VALID,1011.51,VALID,0,VALID,104,VALID,0,VALID,22.6809,VALID,217,VALID,0,
2012-09-11, 00:16:04,VALID,1011.52,VALID,0,VALID,104,VALID,0.112112,VALID,22.6614,VALID,217,VALID,0,
2012-09-11, 00:17:04,VALID,1011.51,VALID,0,VALID,104,VALID,0.112112,VALID,22.6208,VALID,217,VALID,0,
2012-09-11, 00:18:04,VALID,1011.46,VALID,0,VALID,104,VALID,0,VALID,22.642,VALID,217,VALID,0,
2012-09-11, 00:19:04,VALID,1011.47,VALID,0,VALID,104,VALID,0,VALID,22.6225,VALID,217,VALID,0,
2012-09-11, 00:20:04,VALID,1011.43,VALID,0,VALID,104,VALID,0,VALID,22.603,VALID,217,VALID,0,
2012-09-11, 00:21:04,VALID,1011.42,VALID,0,VALID,104,VALID,0,VALID,22.5835,VALID,217,VALID,0,
2012-09-11, 00:22:04,VALID,1011.41,VALID,0,VALID,104,VALID,0,VALID,22.564,VALID,217,VALID,0,
2012-09-11, 00:23:04,VALID,1011.4,VALID,0,VALID,104,VALID,0,VALID,22.5234,VALID,217,VALID,0,
2012-09-11, 00:24:04,VALID,1011.38,VALID,0,VALID,104,VALID,0,VALID,22.5446,VALID,217,VALID,0,
2012-09-11, 00:25:04,VALID,1011.38,VALID,0,VALID,104,VALID,0.112112,VALID,22.5234,VALID,217,VALID,0,
2012-09-11, 00:26:04,VALID,1011.37,VALID,0,VALID,104,VALID,0,VALID,22.5234,VALID,217,VALID,0,
2012-09-11, 00:27:04,VALID,1011.39,VALID,0,VALID,104,VALID,0.112112,VALID,22.5446,VALID,217,VALID,0,
2012-09-11, 00:28:04,VALID,1011.38,VALID,0,VALID,104,VALID,0,VALID,22.5251,VALID,217,VALID,0,
2012-09-11, 00:29:04,VALID,1011.37,VALID,0,VALID,104,VALID,0.112112,VALID,22.5251,VALID,217,VALID,0,
2012-09-11, 00:30:04,VALID,1011.39,VALID,0,VALID,104,VALID,0.112112,VALID,22.5056,VALID,217,VALID,0,
2012-09-11, 00:31:04,VALID,1011.39,VALID,0,VALID,104,VALID,0,VALID,22.4844,VALID,217,VALID,0,
2012-09-11, 00:32:04,VALID,1011.39,VALID,0,VALID,104,VALID,0,VALID,22.4844,VALID,217,VALID,0,
2012-09-11, 00:33:04,VALID,1011.4,VALID,0,VALID,104,VALID,0.112112,VALID,22.4844,VALID,217,VALID,0,
2012-09-11, 00:34:04,VALID,1011.39,VALID,0,VALID,104,VALID,0,VALID,22.5039,VALID,217,VALID,0,
2012-09-11, 00:35:04,VALID,1011.38,VALID,0,VALID,104,VALID,0,VALID,22.5056,VALID,217,VALID,0,
2012-09-11, 00:36:04,VALID,1011.36,VALID,0,VALID,104,VALID,0.112112,VALID,22.4844,VALID,217,VALID,0,
2012-09-11, 00:37:04,VALID,1011.36,VALID,0,VALID,104,VALID,0.112112,VALID,22.5056,VALID,217,VALID,0,
2012-09-11, 00:38:04,VALID,1011.37,VALID,0,VALID,104,VALID,0,VALID,22.4861,VALID,217,VALID,0,
2012-09-11, 00:39:04,VALID,1011.36,VALID,0,VALID,104,VALID,0.112112,VALID,22.4861,VALID,217,VALID,0,
2012-09-11, 00:40:04,VALID,1011.33,VALID,0,VALID,104,VALID,0.112112,VALID,22.465,VALID,217,VALID,0,
2012-09-11, 00:41:04,VALID,1011.32,VALID,0,VALID,104,VALID,0,VALID,22.4667,VALID,217,VALID,0,
2012-09-11, 00:42:04,VALID,1011.29,VALID,0,VALID,104,VALID,0.112112,VALID,22.426,VALID,217,VALID,0,
2012-09-11, 00:43:04,VALID,1011.28,VALID,0,VALID,104,VALID,0.112112,VALID,22.426,VALID,217,VALID,0,
2012-09-11, 00:44:04,VALID,1011.27,VALID,0,VALID,104,VALID,0.112112,VALID,22.4065,VALID,217,VALID,0,
2012-09-11, 00:45:04,VALID,1011.23,VALID,0,VALID,104,VALID,0.112112,VALID,22.387,VALID,217,VALID,0,
2012-09-11, 00:46:04,VALID,1011.22,VALID,0,VALID,104,VALID,0.112112,VALID,22.4065,VALID,217,VALID,0,
2012-09-11, 00:47:04,VALID,1011.21,VALID,0,VALID,104,VALID,0.112112,VALID,22.387,VALID,217,VALID,0,
2012-09-11, 00:48:04,VALID,1011.19,VALID,0,VALID,104,VALID,0.112112,VALID,22.387,VALID,217,VALID,0,
2012-09-11, 00:49:04,VALID,1011.19,VALID,0,VALID,104,VALID,0.112112,VALID,22.4082,VALID,217,VALID,0,
2012-09-11, 00:50:04,VALID,1011.2,VALID,0,VALID,104,VALID,0.112112,VALID,22.3887,VALID,217,VALID,0,
2012-09-11, 00:51:04,VALID,1011.18,VALID,0,VALID,104,VALID,0.112112,VALID,22.3887,VALID,217,VALID,0,
2012-09-11, 00:52:04,VALID,1011.17,VALID,0,VALID,104,VALID,0.112112,VALID,22.3693,VALID,217,VALID,0,
2012-09-11, 00:53:04,VALID,1011.18,VALID,0,VALID,104,VALID,0.112112,VALID,22.3481,VALID,217,VALID,0,
2012-09-11, 00:54:04,VALID,1011.15,VALID,0,VALID,104,VALID,0.112112,VALID,22.3286,VALID,217,VALID,0,
2012-09-11, 00:55:04,VALID,1011.16,VALID,0,VALID,104,VALID,0.112112,VALID,22.3286,VALID,217,VALID,0,
2012-09-11, 00:56:04,VALID,1011.16,VALID,0,VALID,104,VALID,0.112112,VALID,22.3303,VALID,217,VALID,0,
2012-09-11, 00:57:04,VALID,1011.13,VALID,0,VALID,104,VALID,0,VALID,22.3303,VALID,217,VALID,0,
2012-09-11, 00:58:04,VALID,1011.11,VALID,0,VALID,104,VALID,0,VALID,22.3498,VALID,217,VALID,0,
2012-09-11, 00:59:04,VALID,1011.1,VALID,0,VALID,104,VALID,0,VALID,22.3286,VALID,217,VALID,0,
2012-09-11, 01:00:04,VALID,1011.1,VALID,0,VALID,104,VALID,0.112112,VALID,22.3286,VALID,217,VALID,0,
2012-09-11, 01:01:04,VALID,1011.08,VALID,0,VALID,104,VALID,0.112112,VALID,22.3481,VALID,217,VALID,0,
2012-09-11, 01:02:04,VALID,1011.06,VALID,0,VALID,104,VALID,0.112112,VALID,22.3286,VALID,217,VALID,0,
2012-09-11, 01:03:04,VALID,1011.05,VALID,0,VALID,104,VALID,0,VALID,22.3303,VALID,217,VALID,0,
2012-09-11, 01:04:04,VALID,1011.03,VALID,0,VALID,104,VALID,0,VALID,22.3108,VALID,217,VALID,0,
2012-09-11, 01:05:04,VALID,1011.02,VALID,0,VALID,104,VALID,0,VALID,22.2702,VALID,217,VALID,0,
2012-09-11, 01:06:04,VALID,1011.02,VALID,0,VALID,104,VALID,0,VALID,22.2507,VALID,217,VALID,0,
2012-09-11, 01:07:04,VALID,1010.99,VALID,0,VALID,104,VALID,0,VALID,22.2719,VALID,217,VALID,0,
2012-09-11, 01:08:04,VALID,1010.98,VALID,0,VALID,104,VALID,0,VALID,22.2507,VALID,217,VALID,0,
2012-09-11, 01:09:04,VALID,1010.98,VALID,0,VALID,104,VALID,0,VALID,22.2719,VALID,217,VALID,0,
2012-09-11, 01:10:04,VALID,1010.98,VALID,0,VALID,104,VALID,0.112112,VALID,22.2914,VALID,217,VALID,0,
2012-09-11, 01:11:04,VALID,1010.96,VALID,0,VALID,104,VALID,0.112112,VALID,22.2702,VALID,217,VALID,0,
2012-09-11, 01:12:04,VALID,1010.91,VALID,0,VALID,104,VALID,0.112112,VALID,22.2719,VALID,217,VALID,0,
2012-09-11, 01:13:04,VALID,1010.91,VALID,0,VALID,104,VALID,0,VALID,22.2507,VALID,217,VALID,0,
2012-09-11, 01:14:04,VALID,1010.89,VALID,0,VALID,104,VALID,0.112112,VALID,22.2312,VALID,217,VALID,0,
2012-09-11, 01:15:04,VALID,1010.86,VALID,0,VALID,104,VALID,0,VALID,22.2329,VALID,217,VALID,0,
2012-09-11, 01:16:04,VALID,1010.85,VALID,0,VALID,104,VALID,0,VALID,22.2134,VALID,217,VALID,0,
2012-09-11, 01:17:04,VALID,1010.8,VALID,0,VALID,104,VALID,0,VALID,22.2118,VALID,217,VALID,0,
2012-09-11, 01:18:04,VALID,1010.78,VALID,0,VALID,104,VALID,0.112112,VALID,22.2118,VALID,217,VALID,0,
2012-09-11, 01:19:04,VALID,1010.78,VALID,0,VALID,104,VALID,0.112112,VALID,22.2329,VALID,217,VALID,0,
2012-09-11, 01:20:04,VALID,1010.77,VALID,0,VALID,104,VALID,0.112112,VALID,22.2312,VALID,217,VALID,0,
2012-09-11, 01:21:04,VALID,1010.78,VALID,0,VALID,104,VALID,0.112112,VALID,22.2507,VALID,217,VALID,0,
2012-09-11, 01:22:04,VALID,1010.79,VALID,0,VALID,104,VALID,0.112112,VALID,22.2719,VALID,217,VALID,0,
2012-09-11, 01:23:04,VALID,1010.75,VALID,0,VALID,104,VALID,0.112112,VALID,22.2914,VALID,217,VALID,0,
2012-09-11, 01:24:04,VALID,1010.78,VALID,0,VALID,104,VALID,0.112112,VALID,22.2702,VALID,217,VALID,0,
2012-09-11, 01:25:04,VALID,1010.76,VALID,0,VALID,104,VALID,0,VALID,22.2702,VALID,217,VALID,0,
2012-09-11, 01:26:04,VALID,1010.76,VALID,0,VALID,104,VALID,0.112112,VALID,22.2914,VALID,217,VALID,0,
2012-09-11, 01:27:04,VALID,1010.73,VALID,0,VALID,104,VALID,0,VALID,22.2914,VALID,217,VALID,0,
2012-09-11, 01:28:04,VALID,1010.73,VALID,0,VALID,104,VALID,0.112112,VALID,22.2507,VALID,217,VALID,0,
2012-09-11, 01:29:04,VALID,1010.71,VALID,0,VALID,104,VALID,0,VALID,22.2524,VALID,217,VALID,0,
2012-09-11, 01:30:04,VALID,1010.69,VALID,0,VALID,104,VALID,0,VALID,22.2134,VALID,217,VALID,0,
2012-09-11, 01:31:04,VALID,1010.67,VALID,0,VALID,104,VALID,0,VALID,22.1923,VALID,217,VALID,0,
2012-09-11, 01:32:04,VALID,1010.67,VALID,0,VALID,104,VALID,0.112112,VALID,22.2134,VALID,217,VALID,0,
2012-09-11, 01:33:04,VALID,1010.66,VALID,0,VALID,104,VALID,0.112112,VALID,22.2329,VALID,217,VALID,0,
2012-09-11, 01:34:04,VALID,1010.67,VALID,0,VALID,104,VALID,0,VALID,22.2134,VALID,217,VALID,0,
2012-09-11, 01:35:04,VALID,1010.66,VALID,0,VALID,104,VALID,0.112112,VALID,22.1923,VALID,217,VALID,0,
2012-09-11, 01:36:04,VALID,1010.65,VALID,0,VALID,104,VALID,0,VALID,22.2118,VALID,217,VALID,0,
2012-09-11, 01:37:04,VALID,1010.63,VALID,0,VALID,104,VALID,0,VALID,22.2134,VALID,217,VALID,0,
2012-09-11, 01:38:04,VALID,1010.63,VALID,0,VALID,104,VALID,0,VALID,22.2134,VALID,217,VALID,0,
2012-09-11, 01:39:04,VALID,1010.59,VALID,0,VALID,104,VALID,0,VALID,22.2118,VALID,217,VALID,0,
2012-09-11, 01:40:04,VALID,1010.63,VALID,0,VALID,104,VALID,0.112112,VALID,22.2134,VALID,217,VALID,0,
2012-09-11, 01:41:04,VALID,1010.6,VALID,0,VALID,104,VALID,0,VALID,22.2118,VALID,217,VALID,0,
2012-09-11, 01:42:04,VALID,1010.61,VALID,0,VALID,104,VALID,0,VALID,22.2118,VALID,217,VALID,0,
2012-09-11, 01:43:04,VALID,1010.58,VALID,0,VALID,104,VALID,0,VALID,22.2118,VALID,217,VALID,0,
2012-09-11, 01:44:04,VALID,1010.58,VALID,0,VALID,104,VALID,0.112112,VALID,22.2329,VALID,217,VALID,0,
2012-09-11, 01:45:04,VALID,1010.61,VALID,0,VALID,104,VALID,0,VALID,22.2118,VALID,217,VALID,0,
2012-09-11, 01:46:04,VALID,1010.6,VALID,0,VALID,104,VALID,0.112112,VALID,22.2312,VALID,217,VALID,0,
2012-09-11, 01:47:04,VALID,1010.62,VALID,0,VALID,104,VALID,0,VALID,22.2719,VALID,217,VALID,0,
2012-09-11, 01:48:04,VALID,1010.63,VALID,0,VALID,104,VALID,0,VALID,22.2702,VALID,217,VALID,0,
2012-09-11, 01:49:04,VALID,1010.62,VALID,0,VALID,104,VALID,0,VALID,22.2914,VALID,217,VALID,0,
2012-09-11, 01:50:04,VALID,1010.59,VALID,0,VALID,104,VALID,0,VALID,22.2897,VALID,217,VALID,0,
2012-09-11, 01:51:04,VALID,1010.6,VALID,0,VALID,104,VALID,0,VALID,22.3091,VALID,217,VALID,0,
2012-09-11, 01:52:04,VALID,1010.58,VALID,0,VALID,104,VALID,0,VALID,22.2897,VALID,217,VALID,0,
2012-09-11, 01:53:04,VALID,1010.57,VALID,0,VALID,104,VALID,0,VALID,22.2914,VALID,217,VALID,0,
2012-09-11, 01:54:04,VALID,1010.58,VALID,0,VALID,104,VALID,0.112112,VALID,22.2524,VALID,217,VALID,0,
2012-09-11, 01:55:04,VALID,1010.59,VALID,0,VALID,104,VALID,0,VALID,22.2134,VALID,217,VALID,0,
2012-09-11, 01:56:04,VALID,1010.58,VALID,0,VALID,104,VALID,0,VALID,22.194,VALID,217,VALID,0,
2012-09-11, 01:57:04,VALID,1010.56,VALID,0,VALID,104,VALID,0,VALID,22.1745,VALID,217,VALID,0,
2012-09-11, 01:58:04,VALID,1010.56,VALID,0,VALID,104,VALID,0.112112,VALID,22.1745,VALID,217,VALID,0,
2012-09-11, 01:59:04,VALID,1010.54,VALID,0,VALID,104,VALID,0.112112,VALID,22.1339,VALID,217,VALID,0,
2012-09-11, 02:00:04,VALID,1010.52,VALID,0,VALID,104,VALID,0.112112,VALID,22.1355,VALID,217,VALID,0,
2012-09-11, 02:01:04,VALID,1010.53,VALID,0,VALID,104,VALID,0,VALID,22.0949,VALID,217,VALID,0,
2012-09-11, 02:02:04,VALID,1010.51,VALID,0,VALID,104,VALID,0,VALID,22.0949,VALID,217,VALID,0,
2012-09-11, 02:03:04,VALID,1010.52,VALID,0,VALID,104,VALID,0,VALID,22.0949,VALID,217,VALID,0,
2012-09-11, 02:04:04,VALID,1010.5,VALID,0,VALID,104,VALID,0.112112,VALID,22.0949,VALID,217,VALID,0,
2012-09-11, 02:05:04,VALID,1010.54,VALID,0,VALID,104,VALID,0,VALID,22.0966,VALID,217,VALID,0,
2012-09-11, 02:06:04,VALID,1010.52,VALID,0,VALID,104,VALID,0.112112,VALID,22.0754,VALID,217,VALID,0,
2012-09-11, 02:07:04,VALID,1010.51,VALID,0,VALID,104,VALID,0.112112,VALID,22.0966,VALID,217,VALID,0,
2012-09-11, 02:08:04,VALID,1010.51,VALID,0,VALID,104,VALID,0,VALID,22.0966,VALID,217,VALID,0,
2012-09-11, 02:09:04,VALID,1010.49,VALID,0,VALID,104,VALID,0.112112,VALID,22.056,VALID,217,VALID,0,
2012-09-11, 02:10:04,VALID,1010.47,VALID,0,VALID,104,VALID,0.112112,VALID,22.056,VALID,217,VALID,0,
2012-09-11, 02:11:04,VALID,1010.5,VALID,0,VALID,104,VALID,0.112112,VALID,22.0576,VALID,217,VALID,0,
2012-09-11, 02:12:04,VALID,1010.47,VALID,0,VALID,104,VALID,0,VALID,22.0365,VALID,217,VALID,0,
2012-09-11, 02:13:04,VALID,1010.48,VALID,0,VALID,104,VALID,0,VALID,22.0187,VALID,217,VALID,0,
2012-09-11, 02:14:04,VALID,1010.49,VALID,0,VALID,104,VALID,0,VALID,22.0382,VALID,217,VALID,0,
2012-09-11, 02:15:04,VALID,1010.48,VALID,0,VALID,104,VALID,0,VALID,22.0382,VALID,217,VALID,0,
2012-09-11, 02:16:04,VALID,1010.5,VALID,0,VALID,104,VALID,0,VALID,22.0187,VALID,217,VALID,0,
2012-09-11, 02:17:04,VALID,1010.5,VALID,0,VALID,104,VALID,0.112112,VALID,22.0187,VALID,217,VALID,0,
2012-09-11, 02:18:04,VALID,1010.47,VALID,0,VALID,104,VALID,0.112112,VALID,21.9781,VALID,217,VALID,0,
2012-09-11, 02:19:04,VALID,1010.49,VALID,0,VALID,104,VALID,0,VALID,21.9797,VALID,217,VALID,0,
2012-09-11, 02:20:04,VALID,1010.47,VALID,0,VALID,104,VALID,0.112112,VALID,21.9797,VALID,217,VALID,0,
2012-09-11, 02:21:04,VALID,1010.46,VALID,0,VALID,104,VALID,0.112112,VALID,21.9797,VALID,217,VALID,0,
2012-09-11, 02:22:04,VALID,1010.44,VALID,0,VALID,104,VALID,0,VALID,21.9797,VALID,217,VALID,0,
2012-09-11, 02:23:04,VALID,1010.43,VALID,0,VALID,104,VALID,0,VALID,21.9797,VALID,217,VALID,0,
2012-09-11, 02:24:04,VALID,1010.4,VALID,0,VALID,104,VALID,0,VALID,21.9781,VALID,217,VALID,0,
2012-09-11, 02:25:04,VALID,1010.36,VALID,0,VALID,104,VALID,0,VALID,22.0382,VALID,217,VALID,0,
2012-09-11, 02:26:04,VALID,1010.4,VALID,0,VALID,104,VALID,0,VALID,22.0382,VALID,217,VALID,0,
2012-09-11, 02:27:04,VALID,1010.36,VALID,0,VALID,104,VALID,0,VALID,22.0771,VALID,217,VALID,0,
2012-09-11, 02:28:04,VALID,1010.37,VALID,0,VALID,104,VALID,0,VALID,22.0771,VALID,217,VALID,0,
2012-09-11, 02:29:04,VALID,1010.37,VALID,0,VALID,104,VALID,0.112112,VALID,22.0966,VALID,217,VALID,0,
2012-09-11, 02:30:04,VALID,1010.36,VALID,0,VALID,104,VALID,0.112112,VALID,22.1161,VALID,217,VALID,0,
2012-09-11, 02:31:04,VALID,1010.4,VALID,0,VALID,104,VALID,0.112112,VALID,22.0966,VALID,217,VALID,0,
2012-09-11, 02:32:04,VALID,1010.39,VALID,0,VALID,104,VALID,0,VALID,22.1161,VALID,217,VALID,0,
2012-09-11, 02:33:04,VALID,1010.4,VALID,0,VALID,104,VALID,0.112112,VALID,22.1355,VALID,217,VALID,0,
2012-09-11, 02:34:04,VALID,1010.41,VALID,0,VALID,104,VALID,0.112112,VALID,22.155,VALID,217,VALID,0,
2012-09-11, 02:35:04,VALID,1010.42,VALID,0,VALID,104,VALID,0.112112,VALID,22.155,VALID,217,VALID,0,
2012-09-11, 02:36:04,VALID,1010.44,VALID,0,VALID,104,VALID,0.112112,VALID,22.155,VALID,217,VALID,0,
2012-09-11, 02:37:04,VALID,1010.41,VALID,0,VALID,104,VALID,0,VALID,22.1355,VALID,217,VALID,0,
2012-09-11, 02:38:04,VALID,1010.41,VALID,0,VALID,104,VALID,0.112112,VALID,22.1339,VALID,217,VALID,0,
2012-09-11, 02:39:04,VALID,1010.42,VALID,0,VALID,104,VALID,0.112112,VALID,22.1355,VALID,217,VALID,0,
2012-09-11, 02:40:04,VALID,1010.39,VALID,0,VALID,104,VALID,0.112112,VALID,22.1355,VALID,217,VALID,0,
2012-09-11, 02:41:04,VALID,1010.4,VALID,0,VALID,104,VALID,0.112112,VALID,22.1355,VALID,217,VALID,0,
2012-09-11, 02:42:04,VALID,1010.41,VALID,0,VALID,104,VALID,0,VALID,22.1161,VALID,217,VALID,0,
2012-09-11, 02:43:04,VALID,1010.38,VALID,0,VALID,104,VALID,0,VALID,22.0966,VALID,217,VALID,0,
2012-09-11, 02:44:04,VALID,1010.4,VALID,0,VALID,104,VALID,0.112112,VALID,22.0966,VALID,217,VALID,0,
2012-09-11, 02:45:04,VALID,1010.4,VALID,0,VALID,104,VALID,0,VALID,22.0966,VALID,217,VALID,0,
2012-09-11, 02:46:04,VALID,1010.38,VALID,0,VALID,104,VALID,0,VALID,22.0771,VALID,217,VALID,0,
2012-09-11, 02:47:04,VALID,1010.42,VALID,0,VALID,104,VALID,0,VALID,22.0576,VALID,217,VALID,0,
2012-09-11, 02:48:04,VALID,1010.41,VALID,0,VALID,104,VALID,0,VALID,22.0382,VALID,217,VALID,0,
2012-09-11, 02:49:04,VALID,1010.42,VALID,0,VALID,104,VALID,0,VALID,22.0382,VALID,217,VALID,0,
2012-09-11, 02:50:04,VALID,1010.4,VALID,0,VALID,104,VALID,0,VALID,22.0382,VALID,217,VALID,0,
2012-09-11, 02:51:04,VALID,1010.39,VALID,0,VALID,104,VALID,0.112112,VALID,22.0187,VALID,217,VALID,0,
2012-09-11, 02:52:04,VALID,1010.41,VALID,0,VALID,104,VALID,0,VALID,21.9992,VALID,217,VALID,0,
2012-09-11, 02:53:04,VALID,1010.38,VALID,0,VALID,104,VALID,0,VALID,21.9992,VALID,217,VALID,0,
2012-09-11, 02:54:04,VALID,1010.37,VALID,0,VALID,104,VALID,0.112112,VALID,21.9992,VALID,217,VALID,0,
2012-09-11, 02:55:04,VALID,1010.39,VALID,0,VALID,104,VALID,0,VALID,21.9797,VALID,217,VALID,0,
2012-09-11, 02:56:04,VALID,1010.39,VALID,0,VALID,104,VALID,0,VALID,21.9797,VALID,217,VALID,0,
2012-09-11, 02:57:04,VALID,1010.35,VALID,0,VALID,104,VALID,0,VALID,21.9603,VALID,217,VALID,0,
2012-09-11, 02:58:04,VALID,1010.36,VALID,0,VALID,104,VALID,0.112112,VALID,21.9391,VALID,217,VALID,0,
2012-09-11, 02:59:04,VALID,1010.34,VALID,0,VALID,104,VALID,0.112112,VALID,21.9408,VALID,217,VALID,0,
2012-09-11, 03:00:04,VALID,1010.31,VALID,0,VALID,104,VALID,0.112112,VALID,21.9408,VALID,217,VALID,0,
2012-09-11, 03:01:04,VALID,1010.31,VALID,0,VALID,104,VALID,0.112112,VALID,21.9408,VALID,217,VALID,0,
2012-09-11, 03:02:04,VALID,1010.31,VALID,0,VALID,104,VALID,0,VALID,21.9002,VALID,217,VALID,0,
2012-09-11, 03:03:04,VALID,1010.3,VALID,0,VALID,104,VALID,0,VALID,21.9213,VALID,217,VALID,0,
2012-09-11, 03:04:04,VALID,1010.31,VALID,0,VALID,104,VALID,0,VALID,21.9213,VALID,217,VALID,0,
2012-09-11, 03:05:04,VALID,1010.3,VALID,0,VALID,104,VALID,0,VALID,21.9213,VALID,217,VALID,0,
2012-09-11, 03:06:04,VALID,1010.3,VALID,0,VALID,104,VALID,0.112112,VALID,21.9408,VALID,217,VALID,0,
2012-09-11, 03:07:04,VALID,1010.32,VALID,0,VALID,104,VALID,0,VALID,21.9603,VALID,217,VALID,0,
2012-09-11, 03:08:04,VALID,1010.3,VALID,0,VALID,104,VALID,0.112112,VALID,21.9603,VALID,217,VALID,0,
2012-09-11, 03:09:04,VALID,1010.28,VALID,0,VALID,104,VALID,0.112112,VALID,21.9391,VALID,217,VALID,0,
2012-09-11, 03:10:04,VALID,1010.27,VALID,0,VALID,104,VALID,0,VALID,21.9603,VALID,217,VALID,0,
2012-09-11, 03:11:04,VALID,1010.28,VALID,0,VALID,104,VALID,0.112112,VALID,21.9408,VALID,217,VALID,0,
2012-09-11, 03:12:04,VALID,1010.29,VALID,0,VALID,104,VALID,0,VALID,21.9408,VALID,217,VALID,0,
2012-09-11, 03:13:04,VALID,1010.26,VALID,0,VALID,104,VALID,0.112112,VALID,21.9603,VALID,217,VALID,0,
2012-09-11, 03:14:04,VALID,1010.28,VALID,0,VALID,104,VALID,0,VALID,21.9797,VALID,217,VALID,0,
2012-09-11, 03:15:04,VALID,1010.29,VALID,0,VALID,104,VALID,0.112112,VALID,21.9797,VALID,217,VALID,0,
2012-09-11, 03:16:04,VALID,1010.36,VALID,0,VALID,104,VALID,0,VALID,21.9603,VALID,217,VALID,0,
2012-09-11, 03:17:04,VALID,1010.38,VALID,0,VALID,104,VALID,0,VALID,21.9603,VALID,217,VALID,0,
2012-09-11, 03:18:04,VALID,1010.35,VALID,0,VALID,104,VALID,0,VALID,21.9408,VALID,217,VALID,0,
2012-09-11, 03:19:04,VALID,1010.36,VALID,0,VALID,104,VALID,0.112112,VALID,21.9213,VALID,217,VALID,0,
2012-09-11, 03:20:04,VALID,1010.37,VALID,0,VALID,104,VALID,0,VALID,21.9018,VALID,217,VALID,0,
2012-09-11, 03:21:04,VALID,1010.34,VALID,0,VALID,104,VALID,0,VALID,21.8612,VALID,217,VALID,0,
2012-09-11, 03:22:04,VALID,1010.31,VALID,0,VALID,104,VALID,0,VALID,21.8629,VALID,217,VALID,0,
2012-09-11, 03:23:04,VALID,1010.31,VALID,0,VALID,104,VALID,0,VALID,21.8629,VALID,217,VALID,0,
2012-09-11, 03:24:04,VALID,1010.31,VALID,0,VALID,104,VALID,0,VALID,21.8629,VALID,217,VALID,0,
2012-09-11, 03:25:04,VALID,1010.31,VALID,0,VALID,104,VALID,0,VALID,21.8629,VALID,217,VALID,0,
2012-09-11, 03:26:04,VALID,1010.31,VALID,0,VALID,104,VALID,0,VALID,21.8434,VALID,217,VALID,0,
2012-09-11, 03:27:04,VALID,1010.32,VALID,0,VALID,104,VALID,0.112112,VALID,21.8223,VALID,217,VALID,0,
2012-09-11, 03:28:04,VALID,1010.34,VALID,0,VALID,104,VALID,0,VALID,21.8629,VALID,217,VALID,0,
2012-09-11, 03:29:04,VALID,1010.32,VALID,0,VALID,104,VALID,0,VALID,21.8418,VALID,217,VALID,0,
2012-09-11, 03:30:04,VALID,1010.33,VALID,0,VALID,104,VALID,0,VALID,21.8434,VALID,217,VALID,0,
2012-09-11, 03:31:04,VALID,1010.33,VALID,0,VALID,104,VALID,0.112112,VALID,21.8239,VALID,217,VALID,0,
2012-09-11, 03:32:04,VALID,1010.32,VALID,0,VALID,104,VALID,0,VALID,21.8045,VALID,217,VALID,0,
2012-09-11, 03:33:04,VALID,1010.32,VALID,0,VALID,104,VALID,0.112112,VALID,21.8045,VALID,217,VALID,0,
2012-09-11, 03:34:04,VALID,1010.32,VALID,0,VALID,104,VALID,0,VALID,21.8045,VALID,217,VALID,0,
2012-09-11, 03:35:04,VALID,1010.35,VALID,0,VALID,104,VALID,0.112112,VALID,21.7833,VALID,217,VALID,0,
2012-09-11, 03:36:04,VALID,1010.34,VALID,0,VALID,104,VALID,0,VALID,21.8045,VALID,217,VALID,0,
2012-09-11, 03:37:04,VALID,1010.35,VALID,0,VALID,104,VALID,0,VALID,21.785,VALID,217,VALID,0,
2012-09-11, 03:38:04,VALID,1010.39,VALID,0,VALID,104,VALID,0.112112,VALID,21.7639,VALID,217,VALID,0,
2012-09-11, 03:39:04,VALID,1010.38,VALID,0,VALID,104,VALID,0.112112,VALID,21.7655,VALID,217,VALID,0,
2012-09-11, 03:40:04,VALID,1010.38,VALID,0,VALID,104,VALID,0,VALID,21.746,VALID,217,VALID,0,
2012-09-11, 03:41:04,VALID,1010.4,VALID,0,VALID,104,VALID,0.112112,VALID,21.7054,VALID,217,VALID,0,
2012-09-11, 03:42:04,VALID,1010.43,VALID,0,VALID,104,VALID,0,VALID,21.7054,VALID,217,VALID,0,
2012-09-11, 03:43:04,VALID,1010.45,VALID,0,VALID,104,VALID,0.112112,VALID,21.7071,VALID,217,VALID,0,
2012-09-11, 03:44:04,VALID,1010.43,VALID,0,VALID,104,VALID,0.112112,VALID,21.6665,VALID,217,VALID,0,
2012-09-11, 03:45:04,VALID,1010.47,VALID,0,VALID,104,VALID,0.112112,VALID,21.686,VALID,217,VALID,0,
2012-09-11, 03:46:04,VALID,1010.47,VALID,0,VALID,104,VALID,0,VALID,21.6893,VALID,217,VALID,0,
2012-09-11, 03:47:04,VALID,1010.48,VALID,0,VALID,104,VALID,0,VALID,21.6876,VALID,217,VALID,0,
2012-09-11, 03:48:04,VALID,1010.47,VALID,0,VALID,104,VALID,0,VALID,21.6698,VALID,217,VALID,0,
2012-09-11, 03:49:04,VALID,1010.49,VALID,0,VALID,104,VALID,0,VALID,21.6487,VALID,217,VALID,0,
2012-09-11, 03:50:04,VALID,1010.49,VALID,0,VALID,104,VALID,0,VALID,21.6292,VALID,217,VALID,0,
2012-09-11, 03:51:04,VALID,1010.5,VALID,0,VALID,104,VALID,0,VALID,21.6487,VALID,217,VALID,0,
2012-09-11, 03:52:04,VALID,1010.53,VALID,0,VALID,104,VALID,0,VALID,21.6681,VALID,217,VALID,0,
2012-09-11, 03:53:04,VALID,1010.52,VALID,0,VALID,104,VALID,0,VALID,21.6487,VALID,217,VALID,0,
2012-09-11, 03:54:04,VALID,1010.5,VALID,0,VALID,104,VALID,0,VALID,21.6893,VALID,217,VALID,0,
2012-09-11, 03:55:04,VALID,1010.49,VALID,0,VALID,104,VALID,0,VALID,21.6876,VALID,217,VALID,0,
2012-09-11, 03:56:04,VALID,1010.51,VALID,0,VALID,104,VALID,0,VALID,21.6681,VALID,217,VALID,0,
2012-09-11, 03:57:04,VALID,1010.5,VALID,0,VALID,104,VALID,0,VALID,21.6893,VALID,217,VALID,0,
2012-09-11, 03:58:04,VALID,1010.49,VALID,0,VALID,104,VALID,0,VALID,21.6503,VALID,217,VALID,0,
2012-09-11, 03:59:04,VALID,1010.53,VALID,0,VALID,104,VALID,0,VALID,21.6308,VALID,217,VALID,0,
2012-09-11, 04:00:04,VALID,1010.54,VALID,0,VALID,104,VALID,0,VALID,21.5708,VALID,217,VALID,0,
2012-09-11, 04:01:04,VALID,1010.55,VALID,0,VALID,104,VALID,0,VALID,21.5708,VALID,217,VALID,0,
2012-09-11, 04:02:04,VALID,1010.53,VALID,0,VALID,104,VALID,0.112112,VALID,21.5302,VALID,217,VALID,0,